Regional Weather Roundup
Issued by NWS

Home | Current Version | Previous Version | Text Only | Print | Product List | Glossary On
Versions: 1 2 3 4 5 6 7 8 9 10 11 12 13 14 15 16 17 18 19 20 21 22 23 24 25 26 27 28 29 30 31 32 33 34 35 36 37 38 39 40 41 42 43 44 45 46 47 48 49 50
000
ASUS43 KMKX 300611
RWRWI

WISCONSIN REGIONAL WEATHER ROUNDUP
NATIONAL WEATHER SERVICE MILWAUKEE/SULLIVAN WI
100 AM CDT THU MAR 30 2017

NOTE: "FAIR" INDICATES FEW OR NO CLOUDS BELOW 12,000 FEET WITH NO
SIGNIFICANT WEATHER AND/OR OBSTRUCTIONS TO VISIBILITY.

WIZ001-002-006>008-014>016-023>028-300700-
NORTHWEST WISCONSIN

CITY           SKY/WX    TMP DP  RH WIND       PRES   REMARKS
SUPERIOR ARPT  CLOUDY    33  32  94 NE9G16    30.17S WCI  26
6HR MIN TEMP:  33; 6HR MAX TEMP:  34;

ASHLAND        CLOUDY    31  28  89 CALM      30.15F
6HR MIN TEMP:  30; 6HR MAX TEMP:  35;

HAYWARD        CLOUDY    34  28  79 N6        30.11F WCI  29
6HR MIN TEMP:  34; 6HR MAX TEMP:  48;

SIREN          CLOUDY    36  30  80 CALM      30.10F
6HR MIN TEMP:  36; 6HR MAX TEMP:  49;

CUMBERLAND     CLOUDY    37  32  81 E5        30.09F WCI  34
RICE LAKE      CLOUDY    40  33  76 CALM      30.10F
6HR MIN TEMP:  40; 6HR MAX TEMP:  46;

CHETEK         CLOUDY    39  34  81 E3        30.10S
6HR MIN TEMP:  39; 6HR MAX TEMP:  46;

LADYSMITH      CLOUDY    39  32  74 E3        30.11F
6HR MIN TEMP:  39; 6HR MAX TEMP:  47;

EAU CLAIRE     CLOUDY    39  36  89 E10       30.07F WCI  32
6HR MIN TEMP:  39; 6HR MAX TEMP:  47; 6HR PCP:  0.04;

MENOMONIE      CLOUDY    40  37  91 E9        30.08S WCI  33
6HR MIN TEMP:  40; 6HR MAX TEMP:  46; 6HR PCP:  0.01;

NEW RICHMOND   DRIZZLE   40  34  80 E6        30.09S
6HR MIN TEMP:  40; 6HR MAX TEMP:  46;

OSCEOLA        DRIZZLE   42  36  79 E5        30.11F
6HR MIN TEMP:  42; 6HR MAX TEMP:  47;

$$

WIZ003>005-009-010-017-018-300700-
NORTH CENTRAL WISCONSIN

CITY           SKY/WX    TMP DP  RH WIND       PRES   REMARKS
MANITOWISH WTR CLOUDY    37  26  67 SE5       30.13S WCI  33
6HR MIN TEMP:  37; 6HR MAX TEMP:  44;

ARBOR VITAE    CLOUDY    37  26  64 SE7       30.12F WCI  31
6HR MIN TEMP:  37; 6HR MAX TEMP:  44;

WOODRUFF       CLOUDY    37  26  64 SE7       30.12F WCI  31
6HR MIN TEMP:  37; 6HR MAX TEMP:  44;

RHINELANDER    CLOUDY    36  24  62 E8        30.13F WCI  30
6HR MIN TEMP:  36; 6HR MAX TEMP:  44;

EAGLE RIVER    CLOUDY    34  21  58 SE8       30.13F WCI  27
6HR MIN TEMP:  34; 6HR MAX TEMP:  42;

LAND O LAKES   CLOUDY    36  24  61 SE6       30.15F WCI  31
6HR MIN TEMP:  36; 6HR MAX TEMP:  43;

PHILLIPS       CLOUDY    37  27  66 E7        30.11F WCI  32
6HR MIN TEMP:  37; 6HR MAX TEMP:  45;

TOMAHAWK       CLOUDY    36  24  62 E3        30.12F
6HR MIN TEMP:  36; 6HR MAX TEMP:  42;

MEDFORD        CLOUDY    34  29  81 E10       30.08F WCI  26
6HR MIN TEMP:  34; 6HR MAX TEMP:  42;

MERRILL        CLOUDY    36  26  68 E5        30.11F WCI  32
6HR MIN TEMP:  36; 6HR MAX TEMP:  43;

$$

WIZ029-030-035-036-043>047-300700-
CENTRAL WISCONSIN

CITY           SKY/WX    TMP DP  RH WIND       PRES   REMARKS
WAUSAU         CLOUDY    35  26  69 E8        30.09F WCI  29
6HR MIN TEMP:  34; 6HR MAX TEMP:  42; 6HR PCP: TRACE;

MOSINEE        FLURRIES  32  32 100 E9        30.11F WCI  24
MARSHFIELD     MIX PCPN  34  32  92 E14       30.07F WCI  25
6HR MIN TEMP:  34; 6HR MAX TEMP:  42; 6HR PCP:  0.05;

STEVENS POINT  LGT RAIN  32  32 100 NE9       30.10F WCI  24
6HR MIN TEMP:  32; 6HR MAX TEMP:  39; 6HR PCP:  0.10;

WAUPACA        LGT RAIN  37  34  91 NE7       30.10F WCI  31
6HR MIN TEMP:  35; 6HR MAX TEMP:  43;

WAUTOMA        LGT RAIN  35  33  92 NE8       30.09F WCI  29
6HR MIN TEMP:  35; 6HR MAX TEMP:  42;

WISC RAPIDS    FLURRIES  34  34 100 E10       30.09F WCI  26
6HR MIN TEMP:  34; 6HR MAX TEMP:  40; 6HR PCP:  0.29;

CAMP DOUGLAS   CLOUDY    36  33  88 E14       30.05F WCI  27
6HR MIN TEMP:  36; 6HR MAX TEMP:  43; 6HR PCP:  0.02;

$$

WIZ011>013-019>022-031-037>040-048>050-300700-
NORTHEAST WISCONSIN

CITY           SKY/WX    TMP DP  RH WIND       PRES   REMARKS
ANTIGO         CLOUDY    33  25  73 E8        30.11F WCI  26
6HR MIN TEMP:  33; 6HR MAX TEMP:  39;

SHAWANO        CLOUDY    37  31  80 NE8       30.15F WCI  30
6HR MIN TEMP:  36; 6HR MAX TEMP:  41;

OCONTO         CLOUDY    34  29  82 N5        30.16F WCI  30
6HR MIN TEMP:  34; 6HR MAX TEMP:  38;

STURGEON BAY   CLOUDY    34  33  96 NE3       30.13F
6HR MIN TEMP:  34; 6HR MAX TEMP:  38; 6HR PCP:  0.01;

GREEN BAY      LGT RAIN  35  34  96 NE12      30.14F WCI  27
6HR MIN TEMP:  35; 6HR MAX TEMP:  39; 6HR PCP:  0.01;

MANITOWOC      LGT RAIN  37  35  92 NE5       30.14F WCI  33
6HR MIN TEMP:  36; 6HR MAX TEMP:  38; 6HR PCP:  0.02;

APPLETON       LGT RAIN  34  32  93 NE10G17   30.09F WCI  26
CLINTONVILLE   LGT RAIN  34  32  93 NE6       30.13F WCI  29
OSHKOSH        LGT RAIN  37  32  82 E12       30.09F WCI  29
6HR MIN TEMP:  37; 6HR MAX TEMP:  41; 6HR PCP: TRACE;

$$

WIZ032>034-041-042-053>061-300700-
SOUTHWEST WISCONSIN

CITY           SKY/WX    TMP DP  RH WIND       PRES   REMARKS
LA CROSSE      CLOUDY    40  35  83 E12       30.04F WCI  33
6HR MIN TEMP:  40; 6HR MAX TEMP:  45; 6HR PCP:  0.13;

SPARTA         CLOUDY    37  34  91 E8G17     30.06F WCI  30
6HR MIN TEMP:  37; 6HR MAX TEMP:  42; 6HR PCP:  0.06;

VIROQUA        CLOUDY    36  33  88 E17       30.00F WCI  26
6HR MIN TEMP:  36; 6HR MAX TEMP:  42; 6HR PCP:  0.07;

BOSCOBEL       CLOUDY    40  50 100 NE9       29.99F WCI  34
6HR MIN TEMP:  40; 6HR MAX TEMP:  43; 6HR PCP:  0.19;

PRAIRIE DU CHI LGT RAIN  38  38  97 NE9G18    29.98S WCI  32
6HR MIN TEMP:  38; 6HR MAX TEMP:  40; 6HR PCP:  0.17;

PLATTEVILLE    CLOUDY    40  40 100 E23G31    29.92F WCI  30
6HR MIN TEMP:  39; 6HR MAX TEMP:  40; 6HR PCP:  0.05;

$$

WIZ056-057-062-063-064-067-068-300700-
SOUTH CENTRAL WISCONSIN

CITY           SKY/WX    TMP DP  RH WIND       PRES   REMARKS
REEDSBURG      CLOUDY    36  32  85 NE8G21    30.04F WCI  30
6HR MIN TEMP:  36; 6HR MAX TEMP:  44;

BARABOO/DELLS  CLOUDY    36  31  83 E13G21    30.03F WCI  27
6HR MIN TEMP:  36; 6HR MAX TEMP:  42;

LONE ROCK      CLOUDY    39  35  86 E14G24    30.00F WCI  31
6HR MIN TEMP:  39; 6HR MAX TEMP:  45; 6HR PCP:  0.11;

MINERAL POINT  LGT RAIN  39  39 100 E21G29    29.93F WCI  29
MADISON        LGT RAIN  37  35  92 E15       30.02F WCI  28
6HR MIN TEMP:  37; 6HR MAX TEMP:  43; 6HR PCP:  0.20;

MIDDLETON      CLOUDY    38  38 100 E13G20    30.01F WCI  30
6HR MIN TEMP:  38; 6HR MAX TEMP:  44; 6HR PCP:  0.13;

WATERTOWN      CLOUDY    38  38 100 E14       30.03F WCI  29
6HR MIN TEMP:  37; 6HR MAX TEMP:  43; 6HR PCP:  0.09;

MONROE         CLOUDY    37  37 100 NE22G29   29.94F WCI  27
JANESVILLE     CLOUDY    41  41 100 E21G26    29.98F
$$

WIZ051-052-058>065-066-070>072-300700-
SOUTHEAST WISCONSIN

CITY           SKY/WX    TMP DP  RH WIND       PRES   REMARKS
MILWAUKEE      CLOUDY    40  34  79 E21       30.05F WCI  30
6HR MIN TEMP:  38; 6HR MAX TEMP:  41; 6HR PCP:  0.11;

WAUKESHA       LGT RAIN  36  34  93 E15G22    30.04F WCI  26
MILWAUKEE/TIMM LGT RAIN  37  32  81 E10G16    30.07F WCI  30
RACINE         CLOUDY    39  35  86 E20G28    30.05F WCI  29
6HR MIN TEMP:  38; 6HR MAX TEMP:  41; 6HR PCP:  0.10;

KENOSHA        CLOUDY    39  36  89 E23       30.02F WCI  28
6HR MIN TEMP:  39; 6HR MAX TEMP:  42; 6HR PCP:  0.12;

FOND DU LAC    CLOUDY    38  32  79 NE10      30.08F WCI  31
6HR MIN TEMP:  38; 6HR MAX TEMP:  41; 6HR PCP: TRACE;

SHEBOYGAN      CLOUDY    39  33  79 E9        30.11F WCI  33
6HR MIN TEMP:  37; 6HR MAX TEMP:  39; 6HR PCP: TRACE;

WEST BEND      CLOUDY    37  37 100 E13       30.06F WCI  29
JUNEAU         CLOUDY    37  34  89 NE10      30.07F WCI  30
6HR MIN TEMP:  36; 6HR MAX TEMP:  41;

$$

LSZ147-162-300700-
LAKE SUPERIOR

STATION/POSITION TIME  TEMP    WIND        PRES    WAVE
                       AIR SEA DIR/SP/G            HT/PER
                 (UTC) (F)     (DEG/KT/KT) (MB)    (FT/S)
DEVILS ISLAND    0600   34      70/ 13/ 14 1021.8F
PORT WING        0530   34      60/  4/  8 1021.3S
SAXON HARBOR     0530   30     210/  1/  3 1020.7F
$$

LMZ867-665-643>646-300700-
LAKE MICHIGAN

STATION/POSITION TIME  TEMP    WIND        PRES    WAVE
                       AIR SEA DIR/SP/G            HT/PER
                 (UTC) (F)     (DEG/KT/KT) (MB)    (FT/S)
CHAMBERS ISLAND  0540   33      20/  6/  8



USA.gov is the U.S. government's official web portal to all federal, state and local government web resources and services.